Year,Month,Day,Hour,Minute,Value (Times are PST for temperature in C)
2018,06,14,00,00,12.40
2018,06,14,00,01,12.40
2018,06,14,00,02,12.40
2018,06,14,00,03,12.40
2018,06,14,00,04,12.40
2018,06,14,00,05,12.40
2018,06,14,00,06,12.40
2018,06,14,00,07,12.40
2018,06,14,00,08,12.40
2018,06,14,00,09,12.40
2018,06,14,00,10,12.40
2018,06,14,00,11,12.30
2018,06,14,00,12,12.30
2018,06,14,00,13,12.30
2018,06,14,00,14,12.30
2018,06,14,00,15,12.30
2018,06,14,00,16,12.30
2018,06,14,00,17,12.30
2018,06,14,00,18,12.30
2018,06,14,00,19,12.30
2018,06,14,00,20,12.30
2018,06,14,00,21,12.30
2018,06,14,00,22,12.30
2018,06,14,00,23,12.30
2018,06,14,00,24,12.20
2018,06,14,00,25,12.20
2018,06,14,00,26,12.20
2018,06,14,00,27,12.20
2018,06,14,00,28,12.20
2018,06,14,00,29,12.20
2018,06,14,00,30,12.20
2018,06,14,00,31,12.20
2018,06,14,00,32,12.20
2018,06,14,00,33,12.20
2018,06,14,00,34,12.20
2018,06,14,00,35,12.20
2018,06,14,00,36,12.20
2018,06,14,00,37,12.20
2018,06,14,00,38,12.20
2018,06,14,00,39,12.20
2018,06,14,00,40,12.20
2018,06,14,00,41,12.10
2018,06,14,00,42,12.10
2018,06,14,00,43,12.10
2018,06,14,00,44,12.10
2018,06,14,00,45,12.10
2018,06,14,00,46,12.10
2018,06,14,00,47,12.10
2018,06,14,00,48,12.10
2018,06,14,00,49,12.10
2018,06,14,00,50,12.10
2018,06,14,00,51,12.10
2018,06,14,00,52,12.10
2018,06,14,00,53,12.10
2018,06,14,00,54,12.10
2018,06,14,00,55,12.00
2018,06,14,00,56,12.00
2018,06,14,00,57,12.00
2018,06,14,00,58,12.00
2018,06,14,00,59,12.00
2018,06,14,01,00,12.00
2018,06,14,01,01,12.00
2018,06,14,01,02,12.00
2018,06,14,01,03,11.90
2018,06,14,01,04,11.90
2018,06,14,01,05,11.90
2018,06,14,01,06,11.90
2018,06,14,01,07,11.90
2018,06,14,01,08,11.90
2018,06,14,01,09,11.90
2018,06,14,01,10,11.90
2018,06,14,01,11,11.90
2018,06,14,01,12,11.80
2018,06,14,01,13,11.80
2018,06,14,01,14,11.80
2018,06,14,01,15,11.80
2018,06,14,01,16,11.80
2018,06,14,01,17,11.80
2018,06,14,01,18,11.80
2018,06,14,01,19,11.80
2018,06,14,01,20,11.80
2018,06,14,01,21,11.80
2018,06,14,01,22,11.80
2018,06,14,01,23,11.80
2018,06,14,01,24,11.80
2018,06,14,01,25,11.80
2018,06,14,01,26,11.70
2018,06,14,01,27,11.70
2018,06,14,01,28,11.70
2018,06,14,01,29,11.70
2018,06,14,01,30,11.70
2018,06,14,01,31,11.70
2018,06,14,01,32,11.70
2018,06,14,01,33,11.70
2018,06,14,01,34,11.70
2018,06,14,01,35,11.70
2018,06,14,01,36,11.70
2018,06,14,01,37,11.70
2018,06,14,01,38,11.70
2018,06,14,01,39,11.70
2018,06,14,01,40,11.60
2018,06,14,01,41,11.60
2018,06,14,01,42,11.60
2018,06,14,01,43,11.60
2018,06,14,01,44,11.60
2018,06,14,01,45,11.60
2018,06,14,01,46,11.60
2018,06,14,01,47,11.60
2018,06,14,01,48,11.60
2018,06,14,01,49,11.60
2018,06,14,01,50,11.60
2018,06,14,01,51,11.60
2018,06,14,01,52,11.60
2018,06,14,01,53,11.60
2018,06,14,01,54,11.60
2018,06,14,01,55,11.60
2018,06,14,01,56,11.60
2018,06,14,01,57,11.60
2018,06,14,01,58,11.60
2018,06,14,01,59,11.60
2018,06,14,02,00,11.60
2018,06,14,02,01,11.50
2018,06,14,02,02,11.50
2018,06,14,02,03,11.50
2018,06,14,02,04,11.40
2018,06,14,02,05,11.40
2018,06,14,02,06,11.40
2018,06,14,02,07,11.40
2018,06,14,02,08,11.40
2018,06,14,02,09,11.40
2018,06,14,02,10,11.40
2018,06,14,02,11,11.40
2018,06,14,02,12,11.40
2018,06,14,02,13,11.40
2018,06,14,02,14,11.40
2018,06,14,02,15,11.40
2018,06,14,02,16,11.40
2018,06,14,02,17,11.40
2018,06,14,02,18,11.40
2018,06,14,02,19,11.40
2018,06,14,02,20,11.40
2018,06,14,02,21,11.40
2018,06,14,02,22,11.30
2018,06,14,02,23,11.30
2018,06,14,02,24,11.30
2018,06,14,02,25,11.30
2018,06,14,02,26,11.30
2018,06,14,02,27,11.30
2018,06,14,02,28,11.30
2018,06,14,02,29,11.30
2018,06,14,02,30,11.30
2018,06,14,02,31,11.30
2018,06,14,02,32,11.30
2018,06,14,02,33,11.30
2018,06,14,02,34,11.30
2018,06,14,02,35,11.30
2018,06,14,02,36,11.20
2018,06,14,02,37,11.20
2018,06,14,02,38,11.20
2018,06,14,02,39,11.20
2018,06,14,02,40,11.20
2018,06,14,02,41,11.20
2018,06,14,02,42,11.20
2018,06,14,02,43,11.20
2018,06,14,02,44,11.20
2018,06,14,02,45,11.20
2018,06,14,02,46,11.20
2018,06,14,02,47,11.20
2018,06,14,02,48,11.10
2018,06,14,02,49,11.10
2018,06,14,02,50,11.10
2018,06,14,02,51,11.10
2018,06,14,02,52,11.10
2018,06,14,02,53,11.10
2018,06,14,02,54,11.10
2018,06,14,02,55,11.10
2018,06,14,02,56,11.10
2018,06,14,02,57,11.10
2018,06,14,02,58,11.10
2018,06,14,02,59,11.10
2018,06,14,03,00,11.10
2018,06,14,03,01,11.10
2018,06,14,03,02,11.10
2018,06,14,03,03,11.10
2018,06,14,03,04,11.10
2018,06,14,03,05,11.00
2018,06,14,03,06,11.00
2018,06,14,03,07,11.00
2018,06,14,03,08,11.00
2018,06,14,03,09,11.00
2018,06,14,03,10,11.00
2018,06,14,03,11,11.00
2018,06,14,03,12,11.00
2018,06,14,03,13,11.00
2018,06,14,03,14,10.90
2018,06,14,03,15,10.90
2018,06,14,03,16,10.90
2018,06,14,03,17,10.90
2018,06,14,03,18,10.90
2018,06,14,03,19,10.90
2018,06,14,03,20,10.90
2018,06,14,03,21,10.90
2018,06,14,03,22,10.90
2018,06,14,03,23,10.90
2018,06,14,03,24,10.80
2018,06,14,03,25,10.80
2018,06,14,03,26,10.80
2018,06,14,03,27,10.80
2018,06,14,03,28,10.80
2018,06,14,03,29,10.80
2018,06,14,03,30,10.80
2018,06,14,03,31,10.80
2018,06,14,03,32,10.80
2018,06,14,03,33,10.70
2018,06,14,03,34,10.70
2018,06,14,03,35,10.70
2018,06,14,03,36,10.70
2018,06,14,03,37,10.80
2018,06,14,03,38,10.80
2018,06,14,03,39,10.80
2018,06,14,03,40,10.80
2018,06,14,03,41,10.80
2018,06,14,03,42,10.80
2018,06,14,03,43,10.80
2018,06,14,03,44,10.80
2018,06,14,03,45,10.80
2018,06,14,03,46,10.80
2018,06,14,03,47,10.80
2018,06,14,03,48,10.80
2018,06,14,03,49,10.80
2018,06,14,03,50,10.80
2018,06,14,03,51,10.70
2018,06,14,03,52,10.70
2018,06,14,03,53,10.70
2018,06,14,03,54,10.70
2018,06,14,03,55,10.60
2018,06,14,03,56,10.60
2018,06,14,03,57,10.60
2018,06,14,03,58,10.60
2018,06,14,03,59,10.60
2018,06,14,04,00,10.60
2018,06,14,04,01,10.50
2018,06,14,04,02,10.50
2018,06,14,04,03,10.50
2018,06,14,04,04,10.50
2018,06,14,04,05,10.40
2018,06,14,04,06,10.40
2018,06,14,04,07,10.40
2018,06,14,04,08,10.40
2018,06,14,04,09,10.40
2018,06,14,04,10,10.40
2018,06,14,04,11,10.30
2018,06,14,04,12,10.30
2018,06,14,04,13,10.30
2018,06,14,04,14,10.30
2018,06,14,04,15,10.30
2018,06,14,04,16,10.30
2018,06,14,04,17,10.30
2018,06,14,04,18,10.30
2018,06,14,04,19,10.20
2018,06,14,04,20,10.20
2018,06,14,04,21,10.20
2018,06,14,04,22,10.20
2018,06,14,04,23,10.20
2018,06,14,04,24,10.20
2018,06,14,04,25,10.10
2018,06,14,04,26,10.10
2018,06,14,04,27,10.10
2018,06,14,04,28,10.10
2018,06,14,04,29,10.10
2018,06,14,04,30,10.10
2018,06,14,04,31,10.10
2018,06,14,04,32,10.00
2018,06,14,04,33,10.00
2018,06,14,04,34,10.00
2018,06,14,04,35,10.00
2018,06,14,04,36,10.00
2018,06,14,04,37,10.00
2018,06,14,04,38,9.90
2018,06,14,04,39,9.90
2018,06,14,04,40,9.90
2018,06,14,04,41,9.90
2018,06,14,04,42,9.80
2018,06,14,04,43,9.80
2018,06,14,04,44,9.80
2018,06,14,04,45,9.80
2018,06,14,04,46,9.80
2018,06,14,04,47,9.70
2018,06,14,04,48,9.70
2018,06,14,04,49,9.70
2018,06,14,04,50,9.70
2018,06,14,04,51,9.70
2018,06,14,04,52,9.70
2018,06,14,04,53,9.70
2018,06,14,04,54,9.60
2018,06,14,04,55,9.60
2018,06,14,04,56,9.60
2018,06,14,04,57,9.60
2018,06,14,04,58,9.60
2018,06,14,04,59,9.60
2018,06,14,05,00,9.60
2018,06,14,05,01,9.60
2018,06,14,05,02,9.50
2018,06,14,05,03,9.50
2018,06,14,05,04,9.50
2018,06,14,05,05,9.50
2018,06,14,05,06,9.50
2018,06,14,05,07,9.50
2018,06,14,05,08,9.50
2018,06,14,05,09,9.50
2018,06,14,05,10,9.50
2018,06,14,05,11,9.50
2018,06,14,05,12,9.50
2018,06,14,05,13,9.50
2018,06,14,05,14,9.40
2018,06,14,05,15,9.40
2018,06,14,05,16,9.40
2018,06,14,05,17,9.40
2018,06,14,05,18,9.40
2018,06,14,05,19,9.40
2018,06,14,05,20,9.30
2018,06,14,05,21,9.30
2018,06,14,05,22,9.30
2018,06,14,05,23,9.30
2018,06,14,05,24,9.30
2018,06,14,05,25,9.20
2018,06,14,05,26,9.20
2018,06,14,05,27,9.20
2018,06,14,05,28,9.20
2018,06,14,05,29,9.20
2018,06,14,05,30,9.20
2018,06,14,05,31,9.10
2018,06,14,05,32,9.10
2018,06,14,05,33,9.10
2018,06,14,05,34,9.10
2018,06,14,05,35,9.10
2018,06,14,05,36,9.10
2018,06,14,05,37,9.10
2018,06,14,05,38,9.10
2018,06,14,05,39,9.10
2018,06,14,05,40,9.10
2018,06,14,05,41,9.10
2018,06,14,05,42,9.10
2018,06,14,05,43,9.20
2018,06,14,05,44,9.20
2018,06,14,05,45,9.20
2018,06,14,05,46,9.20
2018,06,14,05,47,9.30
2018,06,14,05,48,9.30
2018,06,14,05,49,9.30
2018,06,14,05,50,9.30
2018,06,14,05,51,9.30
2018,06,14,05,52,9.30
2018,06,14,05,53,9.30
2018,06,14,05,54,9.30
2018,06,14,05,55,9.30
2018,06,14,05,56,9.30
2018,06,14,05,57,9.30
2018,06,14,05,58,9.30
2018,06,14,05,59,9.30
2018,06,14,06,00,9.30
2018,06,14,06,01,9.30
2018,06,14,06,02,9.30
2018,06,14,06,03,9.30
2018,06,14,06,04,9.40
2018,06,14,06,05,9.40
2018,06,14,06,06,9.40
2018,06,14,06,07,9.40
2018,06,14,06,08,9.40
2018,06,14,06,09,9.40
2018,06,14,06,10,9.40
2018,06,14,06,11,9.40
2018,06,14,06,12,9.40
2018,06,14,06,13,9.40
2018,06,14,06,14,9.40
2018,06,14,06,15,9.40
2018,06,14,06,16,9.40
2018,06,14,06,17,9.40
2018,06,14,06,18,9.40
2018,06,14,06,19,9.40
2018,06,14,06,20,9.40
2018,06,14,06,21,9.40
2018,06,14,06,22,9.40
2018,06,14,06,23,9.40
2018,06,14,06,24,9.40
2018,06,14,06,25,9.40
2018,06,14,06,26,9.40
2018,06,14,06,27,9.40
2018,06,14,06,28,9.50
2018,06,14,06,29,9.50
2018,06,14,06,30,9.50
2018,06,14,06,31,9.60
2018,06,14,06,32,9.60
2018,06,14,06,33,9.60
2018,06,14,06,34,9.70
2018,06,14,06,35,9.70
2018,06,14,06,36,9.80
2018,06,14,06,37,9.80
2018,06,14,06,38,9.80
2018,06,14,06,39,9.80
2018,06,14,06,40,9.80
2018,06,14,06,41,9.90
2018,06,14,06,42,9.90
2018,06,14,06,43,9.90
2018,06,14,06,44,9.90
2018,06,14,06,45,9.90
2018,06,14,06,46,9.90
2018,06,14,06,47,9.90
2018,06,14,06,48,9.90
2018,06,14,06,49,9.90
2018,06,14,06,50,9.90
2018,06,14,06,51,9.90
2018,06,14,06,52,9.90
2018,06,14,06,53,10.00
2018,06,14,06,54,10.00
2018,06,14,06,55,10.00
2018,06,14,06,56,10.10
2018,06,14,06,57,10.10
2018,06,14,06,58,10.20
2018,06,14,06,59,10.20
2018,06,14,07,00,10.30
2018,06,14,07,01,10.30
2018,06,14,07,02,10.30
2018,06,14,07,03,10.40
2018,06,14,07,04,10.40
2018,06,14,07,05,10.40
2018,06,14,07,06,10.50
2018,06,14,07,07,10.60
2018,06,14,07,08,10.60
2018,06,14,07,09,10.70
2018,06,14,07,10,10.80
2018,06,14,07,11,10.80
2018,06,14,07,12,10.90
2018,06,14,07,13,11.00
2018,06,14,07,14,11.00
2018,06,14,07,15,11.10
2018,06,14,07,16,11.20
2018,06,14,07,17,11.20
2018,06,14,07,18,11.30
2018,06,14,07,19,11.30
2018,06,14,07,20,11.40
2018,06,14,07,21,11.40
2018,06,14,07,22,11.50
2018,06,14,07,23,11.60
2018,06,14,07,24,11.60
2018,06,14,07,25,11.70
2018,06,14,07,26,11.70
2018,06,14,07,27,11.80
2018,06,14,07,28,11.80
2018,06,14,07,29,11.90
2018,06,14,07,30,11.90
2018,06,14,07,31,12.00
2018,06,14,07,32,12.10
2018,06,14,07,33,12.10
2018,06,14,07,34,12.20
2018,06,14,07,35,12.20
2018,06,14,07,36,12.20
2018,06,14,07,37,12.30
2018,06,14,07,38,12.40
2018,06,14,07,39,12.50
2018,06,14,07,40,12.60
2018,06,14,07,41,12.60
2018,06,14,07,42,12.70
2018,06,14,07,43,12.80
2018,06,14,07,44,12.90
2018,06,14,07,45,13.00
2018,06,14,07,46,13.10
2018,06,14,07,47,13.20
2018,06,14,07,48,13.30
2018,06,14,07,49,13.30
2018,06,14,07,50,13.30
2018,06,14,07,51,13.40
2018,06,14,07,52,13.40
2018,06,14,07,53,13.40
2018,06,14,07,54,13.50
2018,06,14,07,55,13.50
2018,06,14,07,56,13.50
2018,06,14,07,57,13.60
2018,06,14,07,58,13.60
2018,06,14,07,59,13.70
2018,06,14,08,00,13.70
2018,06,14,08,01,13.70
2018,06,14,08,02,13.70
2018,06,14,08,03,13.70
2018,06,14,08,04,13.80
2018,06,14,08,05,13.80
2018,06,14,08,06,13.80
2018,06,14,08,07,13.80
2018,06,14,08,08,13.80
2018,06,14,08,09,13.80
2018,06,14,08,10,13.80
2018,06,14,08,11,13.80
2018,06,14,08,12,13.80
2018,06,14,08,13,13.80
2018,06,14,08,14,13.80
2018,06,14,08,15,13.80
2018,06,14,08,16,13.80
2018,06,14,08,17,13.80
2018,06,14,08,18,13.80
2018,06,14,08,19,13.80
2018,06,14,08,20,13.80
2018,06,14,08,21,13.90
2018,06,14,08,22,13.80
2018,06,14,08,23,13.80
2018,06,14,08,24,13.80
2018,06,14,08,25,13.80
2018,06,14,08,26,13.80
2018,06,14,08,27,13.80
2018,06,14,08,28,13.70
2018,06,14,08,29,13.70
2018,06,14,08,30,13.70
2018,06,14,08,31,13.70
2018,06,14,08,32,13.70
2018,06,14,08,33,13.60
2018,06,14,08,34,13.60
2018,06,14,08,35,13.60
2018,06,14,08,36,13.60
2018,06,14,08,37,13.60
2018,06,14,08,38,13.60
2018,06,14,08,39,13.60
2018,06,14,08,40,13.60
2018,06,14,08,41,13.60
2018,06,14,08,42,13.60
2018,06,14,08,43,13.60
2018,06,14,08,44,13.70
2018,06,14,08,45,13.70
2018,06,14,08,46,13.80
2018,06,14,08,47,13.80
2018,06,14,08,48,13.90
2018,06,14,08,49,13.90
2018,06,14,08,50,13.90
2018,06,14,08,51,13.90
2018,06,14,08,52,13.90
2018,06,14,08,53,13.90
2018,06,14,08,54,13.90
2018,06,14,08,55,13.90
2018,06,14,08,56,13.90
2018,06,14,08,57,13.90
2018,06,14,08,58,13.90
2018,06,14,08,59,14.00
2018,06,14,09,00,14.00
2018,06,14,09,01,14.00
2018,06,14,09,02,14.00
2018,06,14,09,03,14.00
2018,06,14,09,04,14.00
2018,06,14,09,05,14.00
2018,06,14,09,06,14.00
2018,06,14,09,07,14.00
2018,06,14,09,08,14.00
2018,06,14,09,09,14.00
2018,06,14,09,10,14.00
2018,06,14,09,11,14.00
2018,06,14,09,12,14.00
2018,06,14,09,13,14.00
2018,06,14,09,14,14.00
2018,06,14,09,15,14.00
2018,06,14,09,16,14.00
2018,06,14,09,17,13.90
2018,06,14,09,18,13.90
2018,06,14,09,19,13.90
2018,06,14,09,20,13.90
2018,06,14,09,21,13.90
2018,06,14,09,22,13.90
2018,06,14,09,23,13.90
2018,06,14,09,24,13.90
2018,06,14,09,25,13.90
2018,06,14,09,26,13.90
2018,06,14,09,27,14.00
2018,06,14,09,28,14.00
2018,06,14,09,29,14.00
2018,06,14,09,30,14.00
2018,06,14,09,31,13.90
2018,06,14,09,32,13.90
2018,06,14,09,33,13.90
2018,06,14,09,34,13.90
2018,06,14,09,35,13.90
2018,06,14,09,36,13.90
2018,06,14,09,37,13.90
2018,06,14,09,38,13.90
2018,06,14,09,39,13.90
2018,06,14,09,40,13.90
2018,06,14,09,41,13.90
2018,06,14,09,42,13.90
2018,06,14,09,43,14.00
2018,06,14,09,44,14.00
2018,06,14,09,45,14.10
2018,06,14,09,46,14.10
2018,06,14,09,47,14.10
2018,06,14,09,48,14.10
2018,06,14,09,49,14.10
2018,06,14,09,50,14.10
2018,06,14,09,51,14.10
2018,06,14,09,52,14.20
2018,06,14,09,53,14.20
2018,06,14,09,54,14.20
2018,06,14,09,55,14.20
2018,06,14,09,56,14.20
2018,06,14,09,57,14.30
2018,06,14,09,58,14.30
2018,06,14,09,59,14.30
2018,06,14,10,00,14.30
2018,06,14,10,01,14.30
2018,06,14,10,02,14.30
2018,06,14,10,03,14.40
2018,06,14,10,04,14.40
2018,06,14,10,05,14.40
2018,06,14,10,06,14.40
2018,06,14,10,07,14.40
2018,06,14,10,08,14.50
2018,06,14,10,09,14.50
2018,06,14,10,10,14.50
2018,06,14,10,11,14.50
2018,06,14,10,12,14.50
2018,06,14,10,13,14.50
2018,06,14,10,14,14.50
2018,06,14,10,15,14.50
2018,06,14,10,16,14.60
2018,06,14,10,17,14.60
2018,06,14,10,18,14.60
2018,06,14,10,19,14.70
2018,06,14,10,20,14.80
2018,06,14,10,21,14.80
2018,06,14,10,22,14.80
2018,06,14,10,23,14.80
2018,06,14,10,24,14.80
2018,06,14,10,25,14.80
2018,06,14,10,26,14.80
2018,06,14,10,27,14.70
2018,06,14,10,28,14.60
2018,06,14,10,29,14.50
2018,06,14,10,30,14.50
2018,06,14,10,31,14.40
2018,06,14,10,32,14.30
2018,06,14,10,33,14.30
2018,06,14,10,34,14.30
2018,06,14,10,35,14.30
2018,06,14,10,36,14.40
2018,06,14,10,37,14.40
2018,06,14,10,38,14.40
2018,06,14,10,39,14.40
2018,06,14,10,40,14.40
2018,06,14,10,41,14.40
2018,06,14,10,42,14.50
2018,06,14,10,43,14.50
2018,06,14,10,44,14.60
2018,06,14,10,45,14.60
2018,06,14,10,46,14.70
2018,06,14,10,47,14.70
2018,06,14,10,48,14.70
2018,06,14,10,49,14.80
2018,06,14,10,50,14.80
2018,06,14,10,51,14.80
2018,06,14,10,52,14.80
2018,06,14,10,53,14.80
2018,06,14,10,54,14.80
2018,06,14,10,55,14.80
2018,06,14,10,56,14.80
2018,06,14,10,57,14.80
2018,06,14,10,58,14.80
2018,06,14,10,59,14.80
2018,06,14,11,00,14.90
2018,06,14,11,01,14.90
2018,06,14,11,02,14.90
2018,06,14,11,03,15.00
2018,06,14,11,04,15.00
2018,06,14,11,05,15.10
2018,06,14,11,06,15.10
2018,06,14,11,07,15.20
2018,06,14,11,08,15.20
2018,06,14,11,09,15.30
2018,06,14,11,10,15.30
2018,06,14,11,11,15.30
2018,06,14,11,12,15.30
2018,06,14,11,13,15.30
2018,06,14,11,14,15.40
2018,06,14,11,15,15.40
2018,06,14,11,16,15.40
2018,06,14,11,17,15.40
2018,06,14,11,18,15.40
2018,06,14,11,19,15.50
2018,06,14,11,20,15.50
2018,06,14,11,21,15.60
2018,06,14,11,22,15.60
2018,06,14,11,23,15.60
2018,06,14,11,24,15.70
2018,06,14,11,25,15.70
2018,06,14,11,26,15.70
2018,06,14,11,27,15.70
2018,06,14,11,28,15.70
2018,06,14,11,29,15.70
2018,06,14,11,30,15.70
2018,06,14,11,31,15.70
2018,06,14,11,32,15.70
2018,06,14,11,33,15.60
2018,06,14,11,34,15.60
2018,06,14,11,35,15.60
2018,06,14,11,36,15.50
2018,06,14,11,37,15.50
2018,06,14,11,38,15.60
2018,06,14,11,39,15.60
2018,06,14,11,40,15.50
2018,06,14,11,41,15.50
2018,06,14,11,42,15.50
2018,06,14,11,43,15.40
2018,06,14,11,44,15.40
2018,06,14,11,45,15.40
2018,06,14,11,46,15.30
2018,06,14,11,47,15.30
2018,06,14,11,48,15.30
2018,06,14,11,49,15.30
2018,06,14,11,50,15.30
2018,06,14,11,51,15.30
2018,06,14,11,52,15.30
2018,06,14,11,53,15.30
2018,06,14,11,54,15.40
2018,06,14,11,55,15.40
2018,06,14,11,56,15.50
2018,06,14,11,57,15.60
2018,06,14,11,58,15.70
2018,06,14,11,59,15.70
2018,06,14,12,00,15.70
2018,06,14,12,01,15.70
2018,06,14,12,02,15.70
2018,06,14,12,03,15.80
2018,06,14,12,04,15.80
2018,06,14,12,05,15.80
2018,06,14,12,06,15.80
2018,06,14,12,07,15.70
2018,06,14,12,08,15.70
2018,06,14,12,09,15.70
2018,06,14,12,10,15.70
2018,06,14,12,11,15.70
2018,06,14,12,12,15.80
2018,06,14,12,13,15.80
2018,06,14,12,14,15.80
2018,06,14,12,15,15.80
2018,06,14,12,16,15.90
2018,06,14,12,17,15.90
2018,06,14,12,18,15.90
2018,06,14,12,19,15.80
2018,06,14,12,20,15.80
2018,06,14,12,21,15.80
2018,06,14,12,22,15.90
2018,06,14,12,23,15.90
2018,06,14,12,24,15.90
2018,06,14,12,25,16.00
2018,06,14,12,26,16.00
2018,06,14,12,27,16.00
2018,06,14,12,28,16.00
2018,06,14,12,29,15.90
2018,06,14,12,30,15.90
2018,06,14,12,31,15.90
2018,06,14,12,32,15.90
2018,06,14,12,33,16.00
2018,06,14,12,34,16.00
2018,06,14,12,35,16.00
2018,06,14,12,36,16.10
2018,06,14,12,37,16.10
2018,06,14,12,38,16.10
2018,06,14,12,39,16.10
2018,06,14,12,40,16.10
2018,06,14,12,41,16.10
2018,06,14,12,42,16.10
2018,06,14,12,43,16.10
2018,06,14,12,44,16.10
2018,06,14,12,45,16.10
2018,06,14,12,46,16.10
2018,06,14,12,47,16.10
2018,06,14,12,48,16.10
2018,06,14,12,49,16.10
2018,06,14,12,50,16.10
2018,06,14,12,51,16.10
2018,06,14,12,52,16.10
2018,06,14,12,53,16.10
2018,06,14,12,54,16.10
2018,06,14,12,55,16.10
2018,06,14,12,56,16.10
2018,06,14,12,57,16.10
2018,06,14,12,58,16.10
2018,06,14,12,59,16.20
2018,06,14,13,00,16.20
2018,06,14,13,01,16.20
2018,06,14,13,02,16.20
2018,06,14,13,03,16.20
2018,06,14,13,04,16.20
2018,06,14,13,05,16.20
2018,06,14,13,06,16.20
2018,06,14,13,07,16.20
2018,06,14,13,08,16.20
2018,06,14,13,09,16.10
2018,06,14,13,10,16.10
2018,06,14,13,11,16.00
2018,06,14,13,12,16.00
2018,06,14,13,13,16.00
2018,06,14,13,14,15.90
2018,06,14,13,15,15.90
2018,06,14,13,16,15.90
2018,06,14,13,17,16.00
2018,06,14,13,18,15.90
2018,06,14,13,19,15.90
2018,06,14,13,20,15.90
2018,06,14,13,21,15.90
2018,06,14,13,22,15.90
2018,06,14,13,23,15.90
2018,06,14,13,24,15.90
2018,06,14,13,25,15.90
2018,06,14,13,26,15.90
2018,06,14,13,27,15.90
2018,06,14,13,28,15.90
2018,06,14,13,29,15.90
2018,06,14,13,30,15.90
2018,06,14,13,31,15.90
2018,06,14,13,32,15.90
2018,06,14,13,33,15.90
2018,06,14,13,34,15.90
2018,06,14,13,35,15.90
2018,06,14,13,36,15.90
2018,06,14,13,37,15.90
2018,06,14,13,38,15.90
2018,06,14,13,39,15.90
2018,06,14,13,40,15.90
2018,06,14,13,41,15.90
2018,06,14,13,42,15.90
2018,06,14,13,43,15.90
2018,06,14,13,44,15.90
2018,06,14,13,45,15.90
2018,06,14,13,46,15.90
2018,06,14,13,47,15.90
2018,06,14,13,48,15.90
2018,06,14,13,49,16.00
2018,06,14,13,50,16.00
2018,06,14,13,51,16.10
2018,06,14,13,52,16.10
2018,06,14,13,53,16.20
2018,06,14,13,54,16.30
2018,06,14,13,55,16.40
2018,06,14,13,56,16.40
2018,06,14,13,57,16.40
2018,06,14,13,58,16.40
2018,06,14,13,59,16.40
2018,06,14,14,00,16.40
2018,06,14,14,01,16.40
2018,06,14,14,02,16.50
2018,06,14,14,03,16.50
2018,06,14,14,04,16.60
2018,06,14,14,05,16.60
2018,06,14,14,06,16.60
2018,06,14,14,07,16.70
2018,06,14,14,08,16.70
2018,06,14,14,09,16.70
2018,06,14,14,10,16.70
2018,06,14,14,11,16.80
2018,06,14,14,12,16.80
2018,06,14,14,13,16.80
2018,06,14,14,14,16.80
2018,06,14,14,15,16.80
2018,06,14,14,16,16.80
2018,06,14,14,17,16.80
2018,06,14,14,18,16.80
2018,06,14,14,19,16.80
2018,06,14,14,20,16.70
2018,06,14,14,21,16.70
2018,06,14,14,22,16.70
2018,06,14,14,23,16.70
2018,06,14,14,24,16.70
2018,06,14,14,25,16.80
2018,06,14,14,26,16.80
2018,06,14,14,27,16.80
2018,06,14,14,28,16.80
2018,06,14,14,29,16.90
2018,06,14,14,30,16.90
2018,06,14,14,31,16.80
2018,06,14,14,32,16.90
2018,06,14,14,33,16.80
2018,06,14,14,34,16.80
2018,06,14,14,35,16.80
2018,06,14,14,36,16.80
2018,06,14,14,37,16.80
2018,06,14,14,38,16.80
2018,06,14,14,39,16.80
2018,06,14,14,40,16.80
2018,06,14,14,41,16.80
2018,06,14,14,42,16.80
2018,06,14,14,43,16.70
2018,06,14,14,44,16.70
2018,06,14,14,45,16.70
2018,06,14,14,46,16.80
2018,06,14,14,47,16.80
2018,06,14,14,48,16.80
2018,06,14,14,49,16.80
2018,06,14,14,50,16.80
2018,06,14,14,51,16.90
2018,06,14,14,52,16.90
2018,06,14,14,53,17.00
2018,06,14,14,54,17.00
2018,06,14,14,55,17.10
2018,06,14,14,56,17.20
2018,06,14,14,57,17.20
2018,06,14,14,58,17.20
2018,06,14,14,59,17.20
2018,06,14,15,00,17.10
2018,06,14,15,01,17.10
2018,06,14,15,02,17.20
2018,06,14,15,03,17.20
2018,06,14,15,04,17.20
2018,06,14,15,05,17.20
2018,06,14,15,06,17.30
2018,06,14,15,07,17.20
2018,06,14,15,08,17.20
2018,06,14,15,09,17.20
2018,06,14,15,10,17.20
2018,06,14,15,11,17.20
2018,06,14,15,12,17.20
2018,06,14,15,13,17.20
2018,06,14,15,14,17.20
2018,06,14,15,15,17.20
2018,06,14,15,16,17.20
2018,06,14,15,17,17.20
2018,06,14,15,18,17.10
2018,06,14,15,19,17.10
2018,06,14,15,20,17.10
2018,06,14,15,21,17.10
2018,06,14,15,22,17.20
2018,06,14,15,23,17.20
2018,06,14,15,24,17.20
2018,06,14,15,25,17.30
2018,06,14,15,26,17.30
2018,06,14,15,27,17.30
2018,06,14,15,28,17.40
2018,06,14,15,29,17.40
2018,06,14,15,30,17.40
2018,06,14,15,31,17.30
2018,06,14,15,32,17.30
2018,06,14,15,33,17.30
2018,06,14,15,34,17.30
2018,06,14,15,35,17.30
2018,06,14,15,36,17.30
2018,06,14,15,37,17.30
2018,06,14,15,38,17.20
2018,06,14,15,39,17.20
2018,06,14,15,40,17.20
2018,06,14,15,41,17.10
2018,06,14,15,42,17.10
2018,06,14,15,43,17.10
2018,06,14,15,44,17.10
2018,06,14,15,45,17.10
2018,06,14,15,46,17.20
2018,06,14,15,47,17.20
2018,06,14,15,48,17.20
2018,06,14,15,49,17.20
2018,06,14,15,50,17.20
2018,06,14,15,51,17.10
2018,06,14,15,52,17.10
2018,06,14,15,53,17.10
2018,06,14,15,54,17.00
2018,06,14,15,55,17.00
2018,06,14,15,56,16.90
2018,06,14,15,57,16.90
2018,06,14,15,58,16.90
2018,06,14,15,59,16.90
2018,06,14,16,00,16.90
2018,06,14,16,01,16.90
2018,06,14,16,02,17.00
2018,06,14,16,03,17.00
2018,06,14,16,04,17.00
2018,06,14,16,05,17.00
2018,06,14,16,06,17.10
2018,06,14,16,07,17.10
2018,06,14,16,08,17.10
2018,06,14,16,09,17.10
2018,06,14,16,10,17.10
2018,06,14,16,11,17.10
2018,06,14,16,12,17.20
2018,06,14,16,13,17.20
2018,06,14,16,14,17.30
2018,06,14,16,15,17.30
2018,06,14,16,16,17.40
2018,06,14,16,17,17.40
2018,06,14,16,18,17.40
2018,06,14,16,19,17.40
2018,06,14,16,20,17.40
2018,06,14,16,21,17.50
2018,06,14,16,22,17.50
2018,06,14,16,23,17.50
2018,06,14,16,24,17.50
2018,06,14,16,25,17.50
2018,06,14,16,26,17.50
2018,06,14,16,27,17.50
2018,06,14,16,28,17.40
2018,06,14,16,29,17.40
2018,06,14,16,30,17.30
2018,06,14,16,31,17.30
2018,06,14,16,32,17.30
2018,06,14,16,33,17.30
2018,06,14,16,34,17.20
2018,06,14,16,35,17.20
2018,06,14,16,36,17.20
2018,06,14,16,37,17.10
2018,06,14,16,38,17.10
2018,06,14,16,39,17.10
2018,06,14,16,40,17.10
2018,06,14,16,41,17.00
2018,06,14,16,42,17.00
2018,06,14,16,43,17.00
2018,06,14,16,44,17.00
2018,06,14,16,45,17.00
2018,06,14,16,46,17.00
2018,06,14,16,47,17.00
2018,06,14,16,48,17.00
2018,06,14,16,49,17.00
2018,06,14,16,50,17.00
2018,06,14,16,51,16.90
2018,06,14,16,52,16.90
2018,06,14,16,53,16.90
2018,06,14,16,54,16.90
2018,06,14,16,55,16.90
2018,06,14,16,56,16.90
2018,06,14,16,57,17.00
2018,06,14,16,58,17.00
2018,06,14,16,59,17.00
2018,06,14,17,00,17.00
2018,06,14,17,01,17.00
2018,06,14,17,02,17.00
2018,06,14,17,03,17.00
2018,06,14,17,04,17.00
2018,06,14,17,05,17.00
2018,06,14,17,06,17.00
2018,06,14,17,07,17.00
2018,06,14,17,08,16.90
2018,06,14,17,09,17.00
2018,06,14,17,10,17.00
2018,06,14,17,11,17.00
2018,06,14,17,12,17.10
2018,06,14,17,13,17.10
2018,06,14,17,14,17.10
2018,06,14,17,15,17.20
2018,06,14,17,16,17.20
2018,06,14,17,17,17.30
2018,06,14,17,18,17.30
2018,06,14,17,19,17.30
2018,06,14,17,20,17.30
2018,06,14,17,21,17.30
2018,06,14,17,22,17.30
2018,06,14,17,23,17.30
2018,06,14,17,24,17.20
2018,06,14,17,25,17.20